Reno, NV

9:21 AM PST on December 08, 2016 (GMT -0800)
Reno - Stead

Weather History for KRTS - April, 2013

Change the Weather History Date:

Monday, April 8, 2013

  Actual Average (KRNO) Record (KRNO)
Temperature  
Mean Temperature 35 °F -  
Max Temperature 42 °F 62 °F 82 °F (1989)
Min Temperature 28 °F 29 °F 17 °F (1948)
Degree Days  
Heating Degree Days 30    
Moisture  
Dew Point 25 °F    
Average Humidity 68    
Maximum Humidity 93    
Minimum Humidity 36    
Precipitation  
Precipitation 0.01 in - - ()
Sea Level Pressure  
Sea Level Pressure 29.87 in    
Wind  
Wind Speed 13 mph (NNW)    
Max Wind Speed 28 mph    
Max Gust Speed 33 mph    
Visibility 9 miles    
Events Rain , Snow    
Averages and records for this station are not official NWS values.
T = Trace of Precipitation, MM = Missing Value Source: NWS Daily Summary

Daily Weather History Graph

Daily Weather History Graph

Search for Another Location

Airport or City:

Trip Planner

Search our weather history database for the weather conditions in past years. The results will help you decide how hot, cold, wet, or windy it might be!

Date:

Astronomy

Apr. 08, 2013 Rise Set
Actual Time 6:32 AM PDT 7:30 PM PDT
Civil Twilight 6:04 AM PDT 7:58 PM PDT
Nautical Twilight 5:32 AM PDT 8:31 PM PDT
Astronomical Twilight 4:58 AM PDT 9:05 PM PDT
Moon 5:24 AM PDT 6:10 PM PDT
Length of Visible Light 13h 53m
Length of Day
12h 58m
Waning Crescent, 3% of the Moon is Illuminated
Apr 8
Waning Crescent
Apr 10
New
Apr 18
First Quarter
Apr 25
Full
May 2
Last Quarter

Hourly Weather History & Observations

Time (PDT) Temp. Windchill Dew Point Humidity Pressure Visibility Wind Dir Wind Speed Gust Speed Precip Events Conditions
12:15 AM 35.6 °F 28.6 °F 32.0 °F 87% 29.66 in 10.0 mi NW 9.2 mph - N/A   Overcast
12:35 AM 35.6 °F 30.7 °F 32.0 °F 87% 29.66 in 10.0 mi NW 5.8 mph - N/A   Overcast
12:55 AM 37.4 °F 31.4 °F 32.0 °F 81% 29.66 in 10.0 mi WNW 8.1 mph - N/A Rain Light Rain
1:15 AM 35.6 °F 32.8 °F 32.0 °F 87% 29.66 in 10.0 mi NNW 3.5 mph - N/A   Mostly Cloudy
1:35 AM 35.6 °F 30.7 °F 32.0 °F 87% 29.66 in 10.0 mi WNW 5.8 mph - N/A   Overcast
1:55 AM 35.6 °F 29.9 °F 32.0 °F 87% 29.66 in 10.0 mi West 6.9 mph - N/A   Overcast
2:15 AM 35.6 °F 32.8 °F 32.0 °F 87% 29.65 in 10.0 mi NW 3.5 mph - N/A   Overcast
2:35 AM 35.6 °F 26.6 °F 32.0 °F 87% 29.65 in 10.0 mi NW 13.8 mph - N/A   Overcast
2:50 AM 35.6 °F 25.5 °F 32.0 °F 87% 29.65 in 10.0 mi NW 17.3 mph 23.0 mph N/A   Overcast
3:15 AM 32.0 °F 18.9 °F 30.2 °F 93% 29.66 in 1.2 mi NNW 24.2 mph 29.9 mph N/A Snow Light Snow
3:35 AM 32.0 °F 20.8 °F 30.2 °F 93% 29.68 in 1.0 mi NW 17.3 mph - N/A Snow Light Snow
3:55 AM 32.0 °F 24.2 °F 28.4 °F 87% 29.69 in 3.0 mi NNW 9.2 mph - N/A Snow Light Snow
4:15 AM 32.0 °F 23.6 °F 28.4 °F 87% 29.68 in 10.0 mi NW 10.4 mph 17.3 mph N/A Rain Light Rain
4:35 AM 32.0 °F 22.1 °F 28.4 °F 87% 29.69 in 10.0 mi WNW 13.8 mph 19.6 mph N/A Rain Light Rain
4:55 AM 32.0 °F 21.2 °F 26.6 °F 80% 29.69 in 10.0 mi WNW 16.1 mph 24.2 mph N/A   Mostly Cloudy
5:15 AM 32.0 °F 18.9 °F 26.6 °F 80% 29.68 in 10.0 mi NW 24.2 mph 31.1 mph N/A Rain Light Rain
5:35 AM 32.0 °F 20.1 °F 26.6 °F 80% 29.69 in 9.0 mi NNW 19.6 mph 29.9 mph N/A Rain Light Rain
5:55 AM 32.0 °F 23.6 °F 26.6 °F 80% 29.71 in 10.0 mi North 10.4 mph 20.7 mph N/A Rain Light Rain
6:15 AM 32.0 °F 21.2 °F 26.6 °F 80% 29.73 in 10.0 mi NNW 16.1 mph 24.2 mph N/A Rain Light Rain
6:35 AM 32.0 °F 20.5 °F 26.6 °F 80% 29.74 in 4.0 mi NNW 18.4 mph 28.8 mph N/A   Overcast
6:55 AM 32.0 °F 21.2 °F 26.6 °F 80% 29.76 in 2.0 mi NW 16.1 mph 23.0 mph N/A Snow Light Snow
7:15 AM 30.2 °F 17.1 °F 24.8 °F 80% 29.78 in 6.0 mi NNW 21.9 mph 29.9 mph N/A Snow Light Snow
7:35 AM 30.2 °F 18.5 °F 26.6 °F 86% 29.80 in 3.0 mi NW 17.3 mph 23.0 mph N/A Snow Light Snow
7:55 AM 28.4 °F 17.5 °F 24.8 °F 86% 29.81 in 5.0 mi NW 13.8 mph 28.8 mph N/A Snow Light Snow
8:15 AM 28.4 °F 14.1 °F 24.8 °F 86% 29.82 in 5.0 mi North 24.2 mph 33.4 mph N/A Rain Light Freezing Rain
8:35 AM 28.4 °F 15.4 °F 24.8 °F 86% 29.84 in 4.0 mi North 19.6 mph 27.6 mph N/A Rain Light Freezing Rain
8:55 AM 30.2 °F 19.3 °F 26.6 °F 86% 29.85 in 3.0 mi North 15.0 mph 24.2 mph N/A Snow Light Snow
9:15 AM 30.2 °F 18.9 °F 26.6 °F 86% 29.87 in 3.0 mi North 16.1 mph 19.6 mph N/A   Partly Cloudy
9:35 AM 32.0 °F 20.5 °F 26.6 °F 80% 29.88 in 5.0 mi NNW 18.4 mph 27.6 mph N/A Rain Light Rain
9:55 AM 32.0 °F 21.2 °F 26.6 °F 80% 29.89 in 7.0 mi North 16.1 mph 26.5 mph N/A Rain Light Rain
10:15 AM 33.8 °F 22.5 °F 28.4 °F 81% 29.90 in 9.0 mi NNW 19.6 mph 29.9 mph 0.01 in Rain Light Rain
10:35 AM 32.0 °F 19.5 °F 26.6 °F 80% 29.91 in 9.0 mi NNW 21.9 mph 26.5 mph 0.01 in Rain Light Rain
10:55 AM 32.0 °F 20.1 °F 26.6 °F 80% 29.91 in 10.0 mi NNW 19.6 mph 25.3 mph 0.01 in Rain Light Rain
11:15 AM 33.8 °F 22.2 °F 26.6 °F 75% 29.92 in 10.0 mi North 20.7 mph 24.2 mph N/A   Mostly Cloudy
11:35 AM 35.6 °F 25.2 °F 24.8 °F 65% 29.93 in 10.0 mi North 18.4 mph 26.5 mph N/A   Mostly Cloudy
11:55 AM 37.4 °F 27.2 °F 24.8 °F 60% 29.93 in 10.0 mi NNW 19.6 mph 27.6 mph N/A   Scattered Clouds
12:15 PM 37.4 °F 29.8 °F 24.8 °F 60% 29.93 in 10.0 mi NNW 11.5 mph 23.0 mph N/A   Scattered Clouds
12:35 PM 37.4 °F 27.8 °F 23.0 °F 56% 29.93 in 10.0 mi NNW 17.3 mph 28.8 mph N/A   Mostly Cloudy
12:55 PM 39.2 °F 29.6 °F 23.0 °F 52% 29.94 in 10.0 mi NNW 19.6 mph 32.2 mph N/A   Scattered Clouds
1:15 PM 39.2 °F 29.8 °F 19.4 °F 45% 29.94 in 10.0 mi NNW 18.4 mph 31.1 mph N/A   Partly Cloudy
1:35 PM 39.2 °F 29.8 °F 21.2 °F 49% 29.94 in 10.0 mi NNW 18.4 mph 28.8 mph N/A   Partly Cloudy
1:55 PM 39.2 °F 30.8 °F 19.4 °F 45% 29.95 in 10.0 mi North 15.0 mph 20.7 mph N/A   Scattered Clouds
2:15 PM 39.2 °F 31.2 °F 19.4 °F 45% 29.94 in 10.0 mi NNE 13.8 mph 26.5 mph N/A   Scattered Clouds
2:35 PM 42.8 °F 34.0 °F 17.6 °F 36% 29.93 in 10.0 mi North 20.7 mph 29.9 mph N/A   Partly Cloudy
2:55 PM 41.0 °F 31.9 °F 19.4 °F 42% 29.93 in 10.0 mi NNE 19.6 mph 29.9 mph N/A   Partly Cloudy
3:15 PM 42.8 °F 32.7 °F 17.6 °F 36% 29.93 in 10.0 mi North 27.6 mph 32.2 mph N/A   Partly Cloudy
3:55 PM 41.0 °F 32.5 °F 17.6 °F 39% 29.94 in 10.0 mi NNW 17.3 mph 33.4 mph N/A   Partly Cloudy
4:15 PM 42.8 °F 34.3 °F 19.4 °F 39% 29.93 in 10.0 mi NNW 19.6 mph 24.2 mph N/A   Scattered Clouds
4:35 PM 41.0 °F 31.4 °F 19.4 °F 42% 29.94 in 10.0 mi North 21.9 mph 28.8 mph N/A   Mostly Cloudy
4:55 PM 41.0 °F 32.2 °F 19.4 °F 42% 29.95 in 10.0 mi North 18.4 mph 26.5 mph N/A   Mostly Cloudy
5:15 PM 41.0 °F 32.2 °F 19.4 °F 42% 29.95 in 10.0 mi North 18.4 mph 25.3 mph N/A   Scattered Clouds
5:35 PM 41.0 °F 32.5 °F 19.4 °F 42% 29.96 in 10.0 mi North 17.3 mph 25.3 mph N/A   Scattered Clouds
5:55 PM 39.2 °F 29.0 °F 23.0 °F 52% 29.96 in 10.0 mi NNE 21.9 mph 27.6 mph N/A   Mostly Cloudy
6:15 PM 39.2 °F 29.6 °F 24.8 °F 56% 29.97 in 10.0 mi North 19.6 mph 29.9 mph N/A   Scattered Clouds
6:35 PM 37.4 °F 27.5 °F 24.8 °F 60% 29.98 in 10.0 mi NNW 18.4 mph 24.2 mph N/A Rain Light Rain
6:55 PM 37.4 °F 28.5 °F 24.8 °F 60% 29.98 in 10.0 mi NNW 15.0 mph 19.6 mph N/A   Overcast
7:15 PM 35.6 °F 30.7 °F 26.6 °F 70% 29.99 in 10.0 mi NW 5.8 mph - N/A   Scattered Clouds
7:35 PM 35.6 °F 29.9 °F 24.8 °F 65% 29.99 in 10.0 mi WNW 6.9 mph - N/A   Clear
7:55 PM 35.6 °F 31.7 °F 24.8 °F 65% 29.99 in 10.0 mi WNW 4.6 mph - N/A   Mostly Cloudy
8:15 PM 37.4 °F 32.1 °F 23.0 °F 56% 30.00 in 10.0 mi NW 6.9 mph - N/A   Overcast
8:35 PM 35.6 °F 30.7 °F 23.0 °F 60% 30.00 in 10.0 mi NNW 5.8 mph - N/A   Mostly Cloudy
8:55 PM 35.6 °F - 23.0 °F 60% 30.02 in 10.0 mi Calm Calm - N/A   Mostly Cloudy
9:15 PM 35.6 °F 32.8 °F 21.2 °F 56% 30.03 in 10.0 mi WNW 3.5 mph - N/A   Partly Cloudy
9:35 PM 33.8 °F 30.8 °F 21.2 °F 60% 30.04 in 10.0 mi WNW 3.5 mph - N/A   Mostly Cloudy
9:55 PM 33.8 °F 28.6 °F 23.0 °F 65% 30.05 in 10.0 mi NW 5.8 mph - N/A   Overcast
10:15 PM 35.6 °F 24.8 °F 19.4 °F 52% 30.06 in 10.0 mi North 19.6 mph - N/A   Partly Cloudy
10:35 PM 35.6 °F 26.6 °F 19.4 °F 52% 30.07 in 10.0 mi North 13.8 mph - N/A   Mostly Cloudy
10:55 PM 35.6 °F 27.5 °F 19.4 °F 52% 30.07 in 10.0 mi North 11.5 mph - N/A   Overcast
11:15 PM 35.6 °F 27.1 °F 19.4 °F 52% 30.08 in 10.0 mi North 12.7 mph 19.6 mph N/A   Overcast
11:35 PM 35.6 °F 27.5 °F 17.6 °F 48% 30.08 in 10.0 mi NNW 11.5 mph - N/A   Scattered Clouds
11:55 PM 32.0 °F 24.8 °F 19.4 °F 60% 30.08 in 10.0 mi NW 8.1 mph - N/A   Clear